| time (UTC) | temp C | wind direction | speed KPH | gust KPH | rain 1hr cm | rain 24hr cm | rain mn cm | humidity % | barometer mb |
| 20260510081456 | 10 | 157 | 0.0 | 3.2 | 0.00 | 0.00 | 0.00 | 99 | 999.0 |
| 20260510080952 | 10 | 88 | 4.8 | 6.4 | 0.00 | 0.00 | 0.00 | 99 | 999.1 |
| 20260510080451 | 10 | 72 | 1.6 | 4.8 | 0.00 | 0.00 | 0.00 | 99 | 998.9 |
| 20260510075948 | 10 | 66 | 1.6 | 3.2 | 0.00 | 0.00 | 0.00 | 99 | 999.0 |
| 20260510075446 | 10 | 103 | 3.2 | 3.2 | 0.00 | 0.00 | 0.00 | 99 | 999.1 |
| 20260510074942 | 10 | 112 | 3.2 | 4.8 | 0.00 | 0.00 | 0.00 | 99 | 999.2 |
| 20260510074440 | 10 | 92 | 4.8 | 8.0 | 0.00 | 0.00 | 0.00 | 99 | 999.0 |
| 20260510073936 | 10 | 185 | 1.6 | 4.8 | 0.00 | 0.00 | 0.00 | 99 | 999.0 |
| 20260510073431 | 10 | 114 | 3.2 | 6.4 | 0.00 | 0.00 | 0.00 | 99 | 999.0 |
| 20260510072928 | 10 | 88 | 4.8 | 6.4 | 0.00 | 0.00 | 0.00 | 99 | 999.1 |
| 20260510072426 | 10 | 145 | 3.2 | 8.0 | 0.00 | 0.00 | 0.00 | 99 | 998.6 |
| 20260510071926 | 10 | 106 | 4.8 | 8.0 | 0.00 | 0.00 | 0.00 | 99 | 998.5 |
| 20260510071423 | 10 | 135 | 0.0 | 6.4 | 0.00 | 0.00 | 0.00 | 99 | 998.9 |
| 20260510070921 | 10 | 136 | 3.2 | 8.0 | 0.00 | 0.00 | 0.00 | 99 | 998.8 |
| 20260510070418 | 10 | 170 | 4.8 | 4.8 | 0.00 | 0.00 | 0.00 | 99 | 999.1 |
| 20260510065913 | 10 | 129 | 3.2 | 3.2 | 0.00 | 0.00 | 0.00 | 99 | 999.0 |
| 20260510065410 | 10 | 93 | 1.6 | 3.2 | 0.00 | 0.00 | 0.00 | 98 | 998.9 |
| 20260510064906 | 10 | 85 | 1.6 | 3.2 | 0.00 | 0.00 | 0.00 | 98 | 999.4 |
| 20260510064404 | 10 | 97 | 1.6 | 3.2 | 0.00 | 0.00 | 0.00 | 98 | 999.6 |
| 20260510063900 | 10 | 95 | 3.2 | 3.2 | 0.00 | 0.00 | 0.00 | 98 | 999.6 |
| 20260510063357 | 10 | 93 | 1.6 | 1.6 | 0.00 | 0.00 | 0.00 | 98 | 999.7 |
| 20260510062854 | 10 | 89 | 3.2 | 3.2 | 0.00 | 0.00 | 0.00 | 98 | 999.9 |
| 20260510062349 | 10 | 125 | 1.6 | 1.6 | 0.00 | 0.00 | 0.00 | 98 | 1000.0 |
| 20260510061844 | 10 | 55 | 0.0 | 3.2 | 0.00 | 0.00 | 0.00 | 98 | 999.7 |
| 20260510061342 | 10 | 197 | 0.0 | 3.2 | 0.00 | 0.00 | 0.00 | 98 | 999.9 |
| 20260510060837 | 10 | 103 | 0.0 | 3.2 | 0.00 | 0.00 | 0.00 | 98 | 999.8 |
| 20260510060335 | 10 | 359 | 1.6 | 3.2 | 0.00 | 0.00 | 0.00 | 98 | 1000.0 |
| 20260510055832 | 10 | 229 | 0.0 | 1.6 | 0.00 | 0.00 | 0.00 | 97 | 1000.0 |
| 20260510055331 | 10 | 160 | 1.6 | 3.2 | 0.00 | 0.00 | 0.00 | 97 | 999.8 |
| 20260510054830 | 10 | 183 | 1.6 | 4.8 | 0.00 | 0.00 | 0.00 | 97 | 999.9 |
| 20260510054326 | 10 | 134 | 0.0 | 6.4 | 0.00 | 0.00 | 0.00 | 97 | 999.8 |
| 20260510053821 | 10 | 187 | 1.6 | 1.6 | 0.00 | 0.00 | 0.00 | 97 | 999.5 |
| 20260510053317 | 11 | 145 | 4.8 | 4.8 | 0.00 | 0.00 | 0.00 | 96 | 999.5 |
| 20260510052813 | 11 | 131 | 3.2 | 6.4 | 0.00 | 0.00 | 0.00 | 96 | 999.4 |
| 20260510052309 | 11 | 142 | 0.0 | 4.8 | 0.00 | 0.00 | 0.00 | 96 | 999.3 |
| 20260510051800 | 11 | 157 | 0.0 | 4.8 | 0.00 | 0.00 | 0.00 | 96 | 999.3 |
| 20260510051257 | 11 | 139 | 3.2 | 4.8 | 0.00 | 0.00 | 0.00 | 97 | 999.1 |
| 20260510050754 | 11 | 92 | 6.4 | 6.4 | 0.00 | 0.00 | 0.00 | 97 | 999.0 |
| 20260510050251 | 10 | 148 | 4.8 | 6.4 | 0.00 | 0.00 | 0.00 | 97 | 999.0 |
| 20260510045747 | 10 | 146 | 8.0 | 8.0 | 0.00 | 0.00 | 0.00 | 97 | 998.9 |
| 20260510045244 | 11 | 76 | 3.2 | 6.4 | 0.00 | 0.00 | 0.00 | 97 | 998.9 |
| 20260510044741 | 11 | 95 | 3.2 | 6.4 | 0.00 | 0.00 | 0.00 | 97 | 999.0 |
| 20260510044238 | 11 | 132 | 3.2 | 6.4 | 0.00 | 0.00 | 0.00 | 97 | 999.0 |
| 20260510043733 | 11 | 104 | 4.8 | 6.4 | 0.00 | 0.00 | 0.00 | 97 | 999.2 |
| 20260510043231 | 11 | 93 | 6.4 | 9.7 | 0.00 | 0.00 | 0.00 | 97 | 999.1 |
| 20260510042728 | 11 | 93 | 1.6 | 4.8 | 0.00 | 0.00 | 0.00 | 97 | 999.0 |
| 20260510042223 | 11 | 107 | 3.2 | 8.0 | 0.00 | 0.00 | 0.00 | 97 | 999.1 |
| 20260510041720 | 11 | 104 | 4.8 | 6.4 | 0.00 | 0.00 | 0.00 | 97 | 999.0 |
| 20260510041218 | 11 | 61 | 3.2 | 4.8 | 0.00 | 0.00 | 0.00 | 97 | 999.0 |
| 20260510040714 | 11 | 100 | 6.4 | 6.4 | 0.00 | 0.00 | 0.00 | 97 | 999.2 |
| 20260510040211 | 11 | 83 | 4.8 | 8.0 | 0.00 | 0.00 | 0.00 | 97 | 999.0 |
| 20260510035707 | 11 | 83 | 3.2 | 6.4 | 0.00 | 0.71 | 0.71 | 97 | 999.1 |
| 20260510035203 | 11 | 129 | 4.8 | 6.4 | 0.00 | 0.71 | 0.71 | 97 | 999.0 |
| 20260510034659 | 11 | 89 | 3.2 | 8.0 | 0.00 | 0.71 | 0.71 | 97 | 998.9 |
| 20260510034156 | 11 | 141 | 3.2 | 8.0 | 0.00 | 0.71 | 0.71 | 97 | 998.8 |
| 20260510033652 | 11 | 131 | 3.2 | 8.0 | 0.00 | 0.71 | 0.71 | 97 | 998.8 |
| 20260510033150 | 11 | 121 | 3.2 | 9.7 | 0.00 | 0.71 | 0.71 | 97 | 998.8 |
| 20260510032647 | 11 | 116 | 0.0 | 9.7 | 0.00 | 0.71 | 0.71 | 98 | 999.1 |
| 20260510032142 | 11 | 139 | 6.4 | 8.0 | 0.00 | 0.71 | 0.71 | 98 | 998.9 |
| 20260510031637 | 11 | 102 | 3.2 | 8.0 | 0.00 | 0.71 | 0.71 | 98 | 998.8 |
| 20260510031134 | 11 | 137 | 9.7 | 14.5 | 0.00 | 0.71 | 0.71 | 98 | 998.8 |
| 20260510030628 | 11 | 106 | 3.2 | 9.7 | 0.00 | 0.71 | 0.71 | 98 | 998.8 |
| 20260510030126 | 11 | 107 | 4.8 | 9.7 | 0.00 | 0.71 | 0.71 | 97 | 998.9 |
| 20260510025623 | 11 | 99 | 3.2 | 9.7 | 0.00 | 0.71 | 0.71 | 97 | 998.9 |
| 20260510025120 | 11 | 83 | 6.4 | 8.0 | 0.00 | 0.71 | 0.71 | 97 | 998.9 |
| 20260510024617 | 11 | 100 | 3.2 | 6.4 | 0.00 | 0.71 | 0.71 | 97 | 998.9 |
| 20260510024114 | 11 | 136 | 3.2 | 6.4 | 0.00 | 0.71 | 0.71 | 97 | 998.9 |
| 20260510023610 | 11 | 110 | 3.2 | 8.0 | 0.00 | 0.71 | 0.71 | 97 | 998.9 |
| 20260510023108 | 11 | 149 | 4.8 | 9.7 | 0.00 | 0.71 | 0.71 | 97 | 998.8 |
| 20260510022607 | 11 | 137 | 9.7 | 9.7 | 0.00 | 0.71 | 0.71 | 97 | 998.9 |
| 20260510022102 | 11 | 114 | 3.2 | 8.0 | 0.00 | 0.71 | 0.71 | 97 | 999.2 |
| 20260510021558 | 11 | 146 | 6.4 | 6.4 | 0.00 | 0.71 | 0.71 | 97 | 999.3 |
| 20260510021055 | 11 | 141 | 4.8 | 6.4 | 0.00 | 0.71 | 0.71 | 97 | 999.3 |
| 20260510020550 | 11 | 135 | 3.2 | 8.0 | 0.00 | 0.71 | 0.71 | 97 | 999.0 |
| 20260510020046 | 11 | 91 | 4.8 | 8.0 | 0.00 | 0.71 | 0.71 | 97 | 999.4 |
| 20260510015542 | 11 | 143 | 4.8 | 9.7 | 0.00 | 0.71 | 0.71 | 97 | 999.1 |
| 20260510015037 | 11 | 101 | 3.2 | 8.0 | 0.00 | 0.71 | 0.71 | 97 | 999.1 |
| 20260510014534 | 11 | 132 | 3.2 | 8.0 | 0.00 | 0.71 | 0.71 | 97 | 999.1 |
| 20260510014031 | 11 | 87 | 4.8 | 6.4 | 0.00 | 0.71 | 0.71 | 97 | 999.0 |
| 20260510013526 | 11 | 111 | 3.2 | 8.0 | 0.00 | 0.71 | 0.71 | 97 | 999.1 |
| 20260510013022 | 11 | 99 | 3.2 | 9.7 | 0.00 | 0.71 | 0.71 | 97 | 999.2 |
| 20260510012516 | 11 | 166 | 3.2 | 9.7 | 0.00 | 0.71 | 0.71 | 97 | 998.8 |
| 20260510012012 | 11 | 114 | 4.8 | 9.7 | 0.00 | 0.71 | 0.71 | 97 | 998.8 |
| 20260510011507 | 11 | 84 | 9.7 | 11.3 | 0.00 | 0.71 | 0.71 | 97 | 998.7 |
| 20260510011002 | 11 | 82 | 6.4 | 11.3 | 0.00 | 0.71 | 0.71 | 97 | 999.0 |
| 20260510010500 | 11 | 101 | 3.2 | 9.7 | 0.00 | 0.71 | 0.71 | 97 | 999.0 |
| 20260510005957 | 11 | 79 | 6.4 | 6.4 | 0.00 | 0.71 | 0.71 | 97 | 999.1 |
| 20260510005452 | 11 | 128 | 4.8 | 6.4 | 0.00 | 0.71 | 0.71 | 97 | 998.9 |
| 20260510004950 | 11 | 110 | 4.8 | 6.4 | 0.00 | 0.71 | 0.71 | 97 | 998.9 |
| 20260510004447 | 11 | 101 | 3.2 | 8.0 | 0.00 | 0.71 | 0.71 | 97 | 998.7 |
| 20260510003945 | 11 | 108 | 4.8 | 8.0 | 0.00 | 0.71 | 0.71 | 97 | 998.8 |
| 20260510003442 | 11 | 117 | 3.2 | 8.0 | 0.00 | 0.71 | 0.71 | 97 | 998.8 |
| 20260510002942 | 11 | 106 | 0.0 | 4.8 | 0.00 | 0.71 | 0.71 | 97 | 998.7 |
| 20260510002438 | 11 | 127 | 3.2 | 4.8 | 0.00 | 0.71 | 0.71 | 97 | 998.9 |
| 20260510001935 | 11 | 129 | 3.2 | 4.8 | 0.00 | 0.71 | 0.71 | 97 | 998.8 |
| 20260510001432 | 11 | 80 | 4.8 | 6.4 | 0.00 | 0.71 | 0.71 | 97 | 998.8 |
| 20260510000930 | 11 | 108 | 3.2 | 4.8 | 0.00 | 0.71 | 0.71 | 97 | 998.7 |
| 20260510000426 | 11 | 152 | 3.2 | 6.4 | 0.00 | 0.71 | 0.71 | 97 | 998.6 |
| 20260509235923 | 11 | 110 | 4.8 | 8.0 | 0.00 | 0.71 | 0.71 | 97 | 998.6 |
| 20260509235420 | 11 | 78 | 6.4 | 6.4 | 0.00 | 0.71 | 0.71 | 97 | 998.3 |
| 20260509234916 | 11 | 117 | 4.8 | 6.4 | 0.00 | 0.71 | 0.71 | 97 | 998.2 |
| 20260509234413 | 11 | 118 | 3.2 | 9.7 | 0.00 | 0.71 | 0.71 | 97 | 998.1 |
| 20260509233911 | 11 | 105 | 1.6 | 4.8 | 0.00 | 0.71 | 0.71 | 97 | 998.1 |
| 20260509233408 | 11 | 117 | 4.8 | 6.4 | 0.00 | 0.71 | 0.71 | 97 | 998.3 |
| 20260509232904 | 11 | 73 | 1.6 | 6.4 | 0.00 | 0.71 | 0.71 | 96 | 998.2 |
| 20260509232402 | 11 | 106 | 4.8 | 9.7 | 0.00 | 0.71 | 0.71 | 96 | 998.2 |
| 20260509231857 | 11 | 126 | 4.8 | 4.8 | 0.00 | 0.71 | 0.71 | 96 | 998.2 |
| 20260509231355 | 11 | 130 | 4.8 | 4.8 | 0.00 | 0.71 | 0.71 | 96 | 998.2 |
| 20260509230853 | 11 | 114 | 0.0 | 4.8 | 0.00 | 0.71 | 0.71 | 96 | 998.0 |
| 20260509230349 | 11 | 94 | 4.8 | 6.4 | 0.00 | 0.71 | 0.71 | 96 | 997.9 |
| 20260509225845 | 12 | 121 | 3.2 | 9.7 | 0.00 | 0.71 | 0.71 | 95 | 997.9 |
| 20260509225342 | 12 | 129 | 3.2 | 6.4 | 0.00 | 0.71 | 0.71 | 95 | 997.8 |
| 20260509224837 | 12 | 108 | 1.6 | 9.7 | 0.00 | 0.71 | 0.71 | 95 | 997.8 |
| 20260509224333 | 12 | 140 | 4.8 | 4.8 | 0.00 | 0.71 | 0.71 | 95 | 997.7 |
| 20260509223831 | 12 | 139 | 3.2 | 6.4 | 0.00 | 0.71 | 0.71 | 95 | 998.0 |
| 20260509223327 | 12 | 82 | 8.0 | 8.0 | 0.00 | 0.71 | 0.71 | 96 | 998.0 |
| 20260509222825 | 12 | 152 | 4.8 | 6.4 | 0.00 | 0.71 | 0.71 | 96 | 997.9 |
| 20260509222320 | 12 | 92 | 1.6 | 6.4 | 0.00 | 0.71 | 0.71 | 97 | 998.0 |
| 20260509221816 | 11 | 124 | 4.8 | 4.8 | 0.00 | 0.71 | 0.71 | 97 | 998.0 |
| 20260509221314 | 11 | 140 | 4.8 | 6.4 | 0.00 | 0.71 | 0.71 | 97 | 998.0 |
| 20260509220814 | 11 | 122 | 4.8 | 6.4 | 0.00 | 0.71 | 0.71 | 98 | 998.0 |
| 20260509220310 | 11 | 135 | 3.2 | 4.8 | 0.00 | 0.71 | 0.71 | 98 | 998.0 |
| 20260509215805 | 11 | 138 | 0.0 | 4.8 | 0.00 | 0.71 | 0.71 | 98 | 998.2 |
| 20260509215305 | 11 | 143 | 4.8 | 4.8 | 0.00 | 0.71 | 0.71 | 98 | 998.3 |
| 20260509214759 | 11 | 116 | 3.2 | 4.8 | 0.00 | 0.71 | 0.71 | 99 | 998.4 |
| 20260509214256 | 11 | 86 | 4.8 | 6.4 | 0.00 | 0.71 | 0.71 | 99 | 998.1 |
| 20260509213753 | 11 | 97 | 3.2 | 4.8 | 0.00 | 0.71 | 0.71 | 99 | 998.6 |
| 20260509213249 | 11 | 138 | 3.2 | 6.4 | 0.00 | 0.71 | 0.71 | 99 | 998.3 |
| 20260509212747 | 10 | 89 | 0.0 | 3.2 | 0.00 | 0.71 | 0.71 | 99 | 998.5 |
| 20260509212244 | 10 | 130 | 3.2 | 4.8 | 0.00 | 0.71 | 0.71 | 99 | 998.6 |
| 20260509211739 | 10 | 95 | 3.2 | 4.8 | 0.00 | 0.71 | 0.71 | 99 | 998.5 |
| 20260509211236 | 10 | 163 | 3.2 | 3.2 | 0.00 | 0.71 | 0.71 | 99 | 998.5 |
| 20260509210732 | 10 | 95 | 4.8 | 4.8 | 0.00 | 0.71 | 0.71 | 99 | 998.6 |
| 20260509210231 | 10 | 93 | 3.2 | 6.4 | 0.00 | 0.71 | 0.71 | 99 | 998.6 |
| 20260509205730 | 10 | 142 | 6.4 | 6.4 | 0.00 | 0.71 | 0.71 | 99 | 998.7 |
| 20260509205230 | 10 | 113 | 3.2 | 8.0 | 0.00 | 0.71 | 0.71 | 99 | 998.8 |
| 20260509204726 | 10 | 84 | 3.2 | 6.4 | 0.00 | 0.71 | 0.71 | 99 | 998.7 |
| 20260509204223 | 10 | 120 | 8.0 | 9.7 | 0.00 | 0.71 | 0.71 | 99 | 998.7 |
| 20260509203718 | 10 | 341 | 1.6 | 8.0 | 0.00 | 0.71 | 0.71 | 99 | 998.8 |
| 20260509203217 | 10 | 128 | 3.2 | 11.3 | 0.00 | 0.71 | 0.71 | 99 | 998.9 |
| 20260509202712 | 10 | 111 | 6.4 | 11.3 | 0.00 | 0.71 | 0.71 | 99 | 998.9 |
| 20260509202207 | 9 | 144 | 6.4 | 8.0 | 0.00 | 0.71 | 0.71 | 99 | 998.9 |
| 20260509201703 | 9 | 113 | 3.2 | 12.9 | 0.00 | 0.71 | 0.71 | 99 | 998.9 |
| 20260509201200 | 9 | 97 | 6.4 | 11.3 | 0.00 | 0.71 | 0.71 | 99 | 999.3 |
| 20260509200656 | 9 | 103 | 3.2 | 11.3 | 0.00 | 0.71 | 0.71 | 99 | 999.2 |
| 20260509200151 | 9 | 180 | 3.2 | 8.0 | 0.00 | 0.71 | 0.71 | 99 | 999.2 |
| 20260509195647 | 9 | 140 | 6.4 | 12.9 | 0.00 | 0.71 | 0.71 | 99 | 999.2 |
| 20260509195143 | 9 | 67 | 8.0 | 9.7 | 0.00 | 0.71 | 0.71 | 99 | 999.2 |
| 20260509194643 | 9 | 123 | 6.4 | 8.0 | 0.00 | 0.71 | 0.71 | 99 | 999.4 |
| 20260509194140 | 9 | 71 | 4.8 | 8.0 | 0.00 | 0.71 | 0.71 | 99 | 999.2 |
| 20260509193636 | 8 | 124 | 8.0 | 8.0 | 0.00 | 0.71 | 0.71 | 99 | 999.4 |
| 20260509193131 | 8 | 127 | 8.0 | 11.3 | 0.00 | 0.71 | 0.71 | 99 | 999.6 |
| 20260509192628 | 8 | 57 | 4.8 | 9.7 | 0.00 | 0.71 | 0.71 | 99 | 999.4 |
| 20260509192124 | 8 | 128 | 4.8 | 9.7 | 0.00 | 0.71 | 0.71 | 99 | 999.7 |
| 20260509191623 | 8 | 139 | 4.8 | 6.4 | 0.00 | 0.71 | 0.71 | 99 | 999.8 |
| 20260509191120 | 8 | 96 | 3.2 | 4.8 | 0.00 | 0.71 | 0.71 | 99 | 999.7 |
| 20260509190617 | 8 | 81 | 8.0 | 12.9 | 0.00 | 0.71 | 0.71 | 99 | 999.8 |
| 20260509190114 | 8 | 163 | 1.6 | 4.8 | 0.00 | 0.71 | 0.71 | 99 | 999.8 |
| 20260509185612 | 8 | 125 | 3.2 | 6.4 | 0.00 | 0.71 | 0.71 | 99 | 999.9 |
| 20260509185108 | 8 | 62 | 4.8 | 9.7 | 0.00 | 0.71 | 0.71 | 99 | 999.8 |
| 20260509184606 | 8 | 83 | 1.6 | 6.4 | 0.00 | 0.71 | 0.71 | 99 | 999.9 |
| 20260509184102 | 8 | 56 | 4.8 | 8.0 | 0.00 | 0.71 | 0.71 | 99 | 999.9 |
| 20260509183558 | 8 | 116 | 3.2 | 8.0 | 0.00 | 0.71 | 0.71 | 99 | 999.8 |
| 20260509183054 | 8 | 104 | 3.2 | 9.7 | 0.00 | 0.71 | 0.71 | 99 | 999.8 |
| 20260509182550 | 8 | 52 | 8.0 | 9.7 | 0.00 | 0.71 | 0.71 | 99 | 999.6 |
| 20260509182047 | 8 | 108 | 3.2 | 6.4 | 0.00 | 0.71 | 0.71 | 99 | 999.8 |
| 20260509181546 | 8 | 124 | 6.4 | 8.0 | 0.00 | 0.71 | 0.71 | 99 | 999.8 |
| 20260509181042 | 8 | 120 | 3.2 | 8.0 | 0.05 | 0.71 | 0.71 | 99 | 999.9 |
| 20260509180538 | 8 | 108 | 4.8 | 11.3 | 0.05 | 0.71 | 0.71 | 99 | 999.9 |
| 20260509180036 | 8 | 68 | 3.2 | 8.0 | 0.00 | 0.69 | 0.69 | 99 | 1000.0 |
| 20260509175531 | 8 | 80 | 6.4 | 8.0 | 0.00 | 0.69 | 0.69 | 99 | 999.8 |
| 20260509175028 | 8 | 80 | 4.8 | 6.4 | 0.05 | 0.69 | 0.69 | 99 | 1000.1 |
| 20260509174525 | 8 | 86 | 6.4 | 8.0 | 0.05 | 0.69 | 0.69 | 99 | 1000.1 |
| 20260509174020 | 8 | 109 | 4.8 | 8.0 | 0.05 | 0.69 | 0.69 | 99 | 1000.1 |
| 20260509173514 | 8 | 78 | 6.4 | 9.7 | 0.13 | 0.69 | 0.69 | 99 | 1000.2 |
| 20260509173011 | 8 | 132 | 3.2 | 8.0 | 0.05 | 0.66 | 0.66 | 99 | 1000.2 |
| 20260509172508 | 8 | 140 | 6.4 | 8.0 | 0.05 | 0.66 | 0.66 | 99 | 1000.3 |
| 20260509172003 | 8 | 123 | 6.4 | 8.0 | 0.05 | 0.66 | 0.66 | 99 | 1000.2 |
| 20260509171500 | 8 | 102 | 4.8 | 9.7 | 0.00 | 0.66 | 0.66 | 99 | 1000.2 |
| 20260509170956 | 8 | 89 | 1.6 | 6.4 | 0.05 | 0.66 | 0.66 | 99 | 1000.4 |
| 20260509170452 | 8 | 121 | 1.6 | 12.9 | 0.00 | 0.64 | 0.64 | 99 | 1000.2 |
| 20260509165947 | 8 | 126 | 3.2 | 8.0 | 0.05 | 0.64 | 0.64 | 99 | 1000.2 |
| 20260509165447 | 8 | 104 | 3.2 | 9.7 | 0.13 | 0.64 | 0.64 | 99 | 1000.4 |
| 20260509164943 | 8 | 128 | 6.4 | 9.7 | 0.05 | 0.64 | 0.64 | 99 | 1000.5 |
| 20260509164439 | 8 | 135 | 8.0 | 8.0 | 0.00 | 0.61 | 0.61 | 99 | 1000.7 |
| 20260509163935 | 8 | 101 | 6.4 | 8.0 | 0.00 | 0.61 | 0.61 | 99 | 1000.6 |
| 20260509163432 | 8 | 101 | 4.8 | 9.7 | 0.05 | 0.61 | 0.61 | 99 | 1000.5 |
| 20260509162931 | 8 | 129 | 6.4 | 9.7 | 0.05 | 0.61 | 0.61 | 99 | 1000.6 |
| 20260509162430 | 8 | 121 | 6.4 | 9.7 | 0.00 | 0.61 | 0.61 | 99 | 1000.7 |
| 20260509161926 | 8 | 43 | 3.2 | 8.0 | 0.05 | 0.61 | 0.61 | 99 | 1000.7 |
| 20260509161422 | 7 | 88 | 4.8 | 12.9 | 0.13 | 0.61 | 0.61 | 99 | 1000.9 |
| 20260509160918 | 7 | 116 | 14.5 | 16.1 | 0.13 | 0.61 | 0.61 | 99 | 1000.8 |
| 20260509160413 | 7 | 121 | 3.2 | 9.7 | 0.05 | 0.58 | 0.58 | 99 | 1000.9 |
| 20260509155909 | 7 | 22 | 6.4 | 9.7 | 0.05 | 0.58 | 0.58 | 99 | 1001.0 |
| 20260509155406 | 7 | 131 | 3.2 | 6.4 | 0.05 | 0.56 | 0.56 | 99 | 1001.1 |
| 20260509154902 | 7 | 103 | 4.8 | 9.7 | 0.13 | 0.56 | 0.56 | 99 | 1001.3 |
| 20260509154359 | 7 | 79 | 6.4 | 9.7 | 0.05 | 0.56 | 0.56 | 99 | 1001.2 |
| 20260509153855 | 7 | 43 | 0.0 | 4.8 | 0.05 | 0.56 | 0.56 | 99 | 1001.3 |
| 20260509153353 | 7 | 41 | 3.2 | 12.9 | 0.05 | 0.53 | 0.53 | 99 | 1001.4 |
| 20260509152850 | 7 | 82 | 4.8 | 9.7 | 0.13 | 0.53 | 0.53 | 99 | 1001.6 |
| 20260509152345 | 7 | 238 | 3.2 | 11.3 | 0.05 | 0.53 | 0.53 | 99 | 1001.6 |
| 20260509151843 | 7 | 105 | 3.2 | 6.4 | 0.05 | 0.51 | 0.51 | 99 | 1001.6 |
| 20260509151339 | 7 | 128 | 1.6 | 8.0 | 0.05 | 0.51 | 0.51 | 99 | 1001.7 |
| 20260509150837 | 7 | 92 | 3.2 | 4.8 | 0.13 | 0.51 | 0.51 | 99 | 1001.8 |
| 20260509150335 | 7 | 139 | 4.8 | 6.4 | 0.13 | 0.48 | 0.48 | 99 | 1001.8 |
| 20260509145832 | 7 | 40 | 3.2 | 6.4 | 0.18 | 0.48 | 0.48 | 99 | 1001.9 |
| 20260509145327 | 7 | 107 | 3.2 | 6.4 | 0.18 | 0.46 | 0.46 | 99 | 1001.9 |
| 20260509144823 | 6 | 245 | 0.0 | 6.4 | 0.18 | 0.46 | 0.46 | 98 | 1001.6 |
| 20260509144320 | 7 | 117 | 3.2 | 4.8 | 0.18 | 0.43 | 0.43 | 98 | 1001.7 |
| 20260509143817 | 6 | 100 | 6.4 | 11.3 | 0.13 | 0.43 | 0.43 | 98 | 1001.6 |
| 20260509143315 | 7 | 126 | 6.4 | 9.7 | 0.18 | 0.41 | 0.41 | 98 | 1001.6 |
| 20260509142811 | 7 | 135 | 8.0 | 12.9 | 0.23 | 0.41 | 0.41 | 98 | 1001.6 |
| 20260509142307 | 7 | 137 | 6.4 | 6.4 | 0.23 | 0.38 | 0.38 | 98 | 1001.5 |
| 20260509141802 | 6 | 131 | 6.4 | 8.0 | 0.18 | 0.36 | 0.36 | 98 | 1001.6 |
| 20260509141300 | 6 | 66 | 6.4 | 9.7 | 0.18 | 0.33 | 0.33 | 98 | 1001.8 |
| 20260509140756 | 6 | 130 | 6.4 | 6.4 | 0.23 | 0.33 | 0.33 | 98 | 1001.7 |
| 20260509140254 | 6 | 104 | 4.8 | 6.4 | 0.23 | 0.30 | 0.30 | 98 | 1001.8 |
| 20260509135752 | 6 | 136 | 4.8 | 9.7 | 0.18 | 0.28 | 0.28 | 98 | 1001.6 |
| 20260509135249 | 6 | 126 | 6.4 | 9.7 | 0.18 | 0.28 | 0.28 | 97 | 1001.7 |
| 20260509134746 | 6 | 86 | 4.8 | 9.7 | 0.23 | 0.25 | 0.25 | 97 | 1001.9 |
| 20260509134243 | 6 | 126 | 3.2 | 9.7 | 0.18 | 0.23 | 0.23 | 97 | 1001.8 |
| 20260509133740 | 6 | 111 | 3.2 | 6.4 | 0.18 | 0.23 | 0.23 | 97 | 1001.7 |
| 20260509133237 | 6 | 116 | 3.2 | 6.4 | 0.18 | 0.20 | 0.20 | 97 | 1001.9 |
| 20260509132736 | 6 | 78 | 3.2 | 3.2 | 0.13 | 0.18 | 0.18 | 97 | 1001.7 |
| 20260509132234 | 6 | 96 | 3.2 | 6.4 | 0.18 | 0.18 | 0.18 | 97 | 1001.9 |
| 20260509131730 | 6 | 128 | 3.2 | 4.8 | 0.18 | 0.15 | 0.15 | 96 | 1001.8 |
| 20260509131227 | 6 | 111 | 3.2 | 8.0 | 0.13 | 0.15 | 0.15 | 96 | 1001.9 |
| 20260509130723 | 6 | 104 | 3.2 | 4.8 | 0.05 | 0.13 | 0.13 | 96 | 1001.9 |
| 20260509130219 | 6 | 91 | 4.8 | 4.8 | 0.05 | 0.13 | 0.13 | 96 | 1001.9 |
| 20260509125715 | 6 | 121 | 4.8 | 6.4 | 0.05 | 0.10 | 0.10 | 96 | 1002.0 |
| 20260509125213 | 6 | 97 | 4.8 | 6.4 | 0.05 | 0.10 | 0.10 | 96 | 1002.0 |
| 20260509124709 | 6 | 95 | 3.2 | 6.4 | 0.13 | 0.10 | 0.10 | 96 | 1002.1 |
| 20260509124206 | 6 | 79 | 1.6 | 4.8 | 0.13 | 0.10 | 0.10 | 95 | 1001.8 |
| 20260509123704 | 6 | 77 | 4.8 | 9.7 | 0.05 | 0.08 | 0.08 | 95 | 1002.0 |
| 20260509123200 | 6 | 128 | 4.8 | 6.4 | 0.05 | 0.08 | 0.08 | 95 | 1002.1 |
| 20260509122656 | 6 | 91 | 4.8 | 8.0 | 0.13 | 0.08 | 0.08 | 95 | 1002.1 |
| 20260509122153 | 6 | 107 | 8.0 | 8.0 | 0.05 | 0.05 | 0.05 | 95 | 1002.0 |
| 20260509121649 | 6 | 86 | 3.2 | 8.0 | 0.00 | 0.05 | 0.05 | 94 | 1002.1 |
| 20260509121148 | 6 | 68 | 6.4 | 6.4 | 0.05 | 0.05 | 0.05 | 94 | 1002.1 |
| 20260509120646 | 6 | 94 | 3.2 | 4.8 | 0.05 | 0.05 | 0.05 | 94 | 1002.0 |
| 20260509120143 | 6 | 78 | 6.4 | 8.0 | 0.05 | 0.05 | 0.05 | 93 | 1001.9 |
| 20260509115640 | 6 | 101 | 4.8 | 8.0 | 0.05 | 0.03 | 0.03 | 93 | 1001.9 |
| 20260509115138 | 6 | 116 | 6.4 | 9.7 | 0.13 | 0.03 | 0.03 | 92 | 1001.9 |
| 20260509114636 | 6 | 78 | 6.4 | 9.7 | 0.05 | 0.03 | 0.03 | 92 | 1002.0 |
| 20260509114135 | 6 | 153 | 6.4 | 8.0 | 0.05 | 0.00 | 0.00 | 91 | 1002.0 |
| 20260509113633 | 6 | 73 | 6.4 | 9.7 | 0.05 | 0.00 | 0.00 | 90 | 1002.0 |
| 20260509113130 | 6 | 120 | 11.3 | 11.3 | 0.00 | 0.00 | 0.00 | 89 | 1002.2 |
| 20260509112626 | 6 | 97 | 3.2 | 9.7 | 0.00 | 0.00 | 0.00 | 88 | 1001.9 |
| 20260509112124 | 6 | 92 | 6.4 | 12.9 | 0.00 | 0.00 | 0.00 | 86 | 1002.1 |
| 20260509111620 | 6 | 124 | 6.4 | 12.9 | 0.00 | 0.00 | 0.00 | 85 | 1002.0 |
| 20260509111117 | 6 | 119 | 6.4 | 9.7 | 0.00 | 0.00 | 0.00 | 85 | 1002.3 |
| 20260509110614 | 6 | 95 | 8.0 | 9.7 | 0.00 | 0.00 | 0.00 | 85 | 1002.1 |
| 20260509110112 | 6 | 96 | 4.8 | 9.7 | 0.00 | 0.00 | 0.00 | 85 | 1001.9 |
| 20260509105609 | 6 | 79 | 8.0 | 11.3 | 0.00 | 0.00 | 0.00 | 85 | 1002.0 |
| 20260509105107 | 6 | 110 | 11.3 | 17.7 | 0.00 | 0.00 | 0.00 | 86 | 1001.6 |
| 20260509104603 | 6 | 94 | 6.4 | 12.9 | 0.00 | 0.00 | 0.00 | 86 | 1001.7 |
| 20260509104100 | 6 | 79 | 4.8 | 8.0 | 0.00 | 0.00 | 0.00 | 87 | 1001.6 |
| 20260509103558 | 5 | 135 | 11.3 | 12.9 | 0.00 | 0.00 | 0.00 | 89 | 1001.7 |
| 20260509103056 | 5 | 106 | 3.2 | 9.7 | 0.00 | 0.00 | 0.00 | 90 | 1001.7 |
| 20260509102553 | 5 | 129 | 8.0 | 9.7 | 0.00 | 0.00 | 0.00 | 90 | 1001.8 |
| 20260509102050 | 5 | 99 | 9.7 | 9.7 | 0.00 | 0.00 | 0.00 | 92 | 1001.7 |
| 20260509101546 | 4 | 106 | 3.2 | 6.4 | 0.00 | 0.00 | 0.00 | 93 | 1001.8 |
| 20260509101043 | 4 | 102 | 4.8 | 6.4 | 0.00 | 0.00 | 0.00 | 93 | 1002.2 |
| 20260509100540 | 3 | 88 | 4.8 | 4.8 | 0.00 | 0.00 | 0.00 | 94 | 1002.1 |
| 20260509100038 | 3 | 111 | 4.8 | 8.0 | 0.00 | 0.00 | 0.00 | 94 | 1002.3 |
| 20260509095534 | 3 | 72 | 4.8 | 4.8 | 0.00 | 0.00 | 0.00 | 94 | 1002.2 |
| 20260509095032 | 3 | 70 | 1.6 | 3.2 | 0.00 | 0.00 | 0.00 | 94 | 1002.1 |
| 20260509094528 | 2 | 89 | 1.6 | 4.8 | 0.00 | 0.00 | 0.00 | 94 | 1002.3 |
| 20260509094025 | 2 | 86 | 4.8 | 6.4 | 0.00 | 0.00 | 0.00 | 94 | 1002.0 |
| 20260509093523 | 2 | 77 | 4.8 | 6.4 | 0.00 | 0.00 | 0.00 | 94 | 1002.1 |
| 20260509093021 | 2 | 140 | 4.8 | 6.4 | 0.00 | 0.00 | 0.00 | 94 | 1002.2 |
| 20260509092518 | 2 | 117 | 3.2 | 6.4 | 0.00 | 0.00 | 0.00 | 94 | 1002.3 |
| 20260509092017 | 2 | 50 | 3.2 | 4.8 | 0.00 | 0.00 | 0.00 | 94 | 1002.5 |
| 20260509091514 | 2 | 79 | 3.2 | 3.2 | 0.00 | 0.00 | 0.00 | 94 | 1002.6 |
| 20260509091010 | 2 | 74 | 1.6 | 4.8 | 0.00 | 0.00 | 0.00 | 95 | 1002.4 |
| 20260509090508 | 2 | 80 | 0.0 | 3.2 | 0.00 | 0.00 | 0.00 | 95 | 1002.5 |
| 20260509090006 | 2 | 64 | 3.2 | 4.8 | 0.00 | 0.00 | 0.00 | 95 | 1002.6 |
| 20260509085502 | 2 | 77 | 3.2 | 3.2 | 0.00 | 0.00 | 0.00 | 95 | 1002.4 |
| 20260509084958 | 2 | 81 | 4.8 | 6.4 | 0.00 | 0.00 | 0.00 | 95 | 1002.6 |
| 20260509084455 | 2 | 71 | 3.2 | 4.8 | 0.00 | 0.00 | 0.00 | 95 | 1002.5 |
| 20260509083952 | 2 | 78 | 1.6 | 4.8 | 0.00 | 0.00 | 0.00 | 96 | 1002.6 |
| 20260509083450 | 2 | 68 | 4.8 | 6.4 | 0.00 | 0.00 | 0.00 | 96 | 1002.3 |
| 20260509082946 | 1 | 86 | 3.2 | 6.4 | 0.00 | 0.00 | 0.00 | 96 | 1002.4 |
| 20260509082444 | 1 | 66 | 4.8 | 6.4 | 0.00 | 0.00 | 0.00 | 96 | 1002.5 |
| 20260509081941 | 1 | 50 | 4.8 | 6.4 | 0.00 | 0.00 | 0.00 | 96 | 1002.5 |